City of Long Branch

Main Menu
General Information
Domingos Saldida - Director of Public Safety
Phone Numbers
732-222-1000
Emergencies: Dial 911
Location
344 Broadway
Long Branch,
NJ
07704

Burglary 2019

IR NUMBERCRIMEFIRST DATE TIMEBEATPUBLIC ADDRESS
19LB00101BURGLARY, TO MOTOR VEHICLE01-02-2019 08:07P2514XX OCEAN BLVD, LONG BRANCH, NJ
19LB00148BURGLARY, TO MOTOR VEHICLE01-02-2019 17:30P2514XX OCEAN BLVD, LONG BRANCH, NJ
19LB00235BURGLARY, TO MOTOR VEHICLE01-02-2019 20:03P2541XX MATILDA TER, LONG BRANCH, NJ
19LB00252BURGLARY, TO MOTOR VEHICLE01-04-2019 02:12P251XX AVENEL BLVD, LONG BRANCH, NJ
19LB00380BURGLARY, TO MOTOR VEHICLE01-04-2019 15:30P255XX JIM LYNCH DR, LONG BRANCH, NJ
19LB00586BURGLARY, TO MOTOR VEHICLE01-07-2019 23:00P2515XX LONG BRANCH AVE, LONG BRANCH, NJ
19LB00770BURGLARY, TO MOTOR VEHICLE01-09-2019 02:00P2522XX 6TH AVE, LONG BRANCH, NJ
19LB00670BURGLARY, TO MOTOR VEHICLE01-09-2019 03:29P2522XX BRANCHPORT AVE, LONG BRANCH, NJ
19LB00937BURGLARY, NONRES, ATT FORCE EN01-12-2019 18:57P2541XX GARRETT DR, LONG BRANCH, NJ
19LB01299BURGLARY, TO MOTOR VEHICLE01-13-2019 20:00P2552XX NORGROVE PL, LONG BRANCH, NJ
19LB01046BURGLARY, TO MOTOR VEHICLE01-13-2019 23:00P2559XX WOODGATE AVE, LONG BRANCH, NJ
19LB01048BURGLARY, TO MOTOR VEHICLE01-14-2019 03:04P2551XX VOZI CT, LONG BRANCH, NJ
19LB01170BURGLARY, TO MOTOR VEHICLE01-15-2019 12:38P2559XX WOODGATE AVE, LONG BRANCH, NJ
19LB01526BURGLARY, TO MOTOR VEHICLE01-19-2019 09:50P2533XX POOLE AVE, LONG BRANCH, NJ
19LB02298BURGLARY, RESD, UNLAWFUL EN01-27-2019 10:02P2557XX WERTHEIM PL, LONG BRANCH, NJ
19LB03268BURGLARY, TO MOTOR VEHICLE02-08-2019 01:39P2541XX GARRETT DR, LONG BRANCH, NJ
19LB03268BURGLARY, TO MOTOR VEHICLE02-08-2019 01:39P2541XX GARRETT DR, LONG BRANCH, NJ
19LB03280BURGLARY, NONRES, UNLAWFUL EN02-08-2019 07:55P2543XX WESTWOOD AVE, LONG BRANCH, NJ
19LB03280BURGLARY, NONRES, UNLAWFUL EN02-08-2019 07:55P2543XX WESTWOOD AVE, LONG BRANCH, NJ
19LB03641BURGLARY, TO MOTOR VEHICLE02-12-2019 15:10P252XX JACKSON ST, LONG BRANCH, NJ
19LB06284BURGLARY, NONRES, ATT FORCE EN02-15-2019 13:41P2551XX CEDAR AVE, LONG BRANCH, NJ
19LB05208BURGLARY, NONRES, UNLAWFUL EN02-15-2019 19:21P2553XX NORWOOD AVE, LONG BRANCH, NJ
19LB04079BURGLARY, TO MOTOR VEHICLE02-17-2019 14:51P2544XX WEST END AVE, LONG BRANCH, NJ
19LB04485BURGLARY, TO MOTOR VEHICLE02-22-2019 06:54P2511XX WITMER PL, LONG BRANCH, NJ
19LB04834BURGLARY, TO MOTOR VEHICLE02-26-2019 02:04P255XX JIM LYNCH DR, LONG BRANCH, NJ
19LB04865BURGLARY, NONRES, ATT FORCE EN02-26-2019 12:35P254XX OAKWOOD AVE, LONG BRANCH, NJ
19LB05228BURGLARY, TO MOTOR VEHICLE02-28-2019 20:17P2552XX LENOX AVE, LONG BRANCH, NJ
19LB05201BURGLARY, TO MOTOR VEHICLE03-01-2019 10:00P2544XX HIGH ST, LONG BRANCH, NJ
19LB05176BURGLARY, TO MOTOR VEHICLE03-02-2019 01:08P2545XX OCEAN BLVD S, LONG BRANCH, NJ
19LB05176BURGLARY, TO MOTOR VEHICLE03-02-2019 01:08P2545XX OCEAN BLVD S, LONG BRANCH, NJ
19LB05183BURGLARY, TO MOTOR VEHICLE03-02-2019 01:30P2534XX BATH AVE, LONG BRANCH, NJ
19LB06492BURGLARY, TO MOTOR VEHICLE03-16-2019 18:30P2553XX OAKLEY AVE, LONG BRANCH, NJ
19LB06537BURGLARY, TO MOTOR VEHICLE03-18-2019 06:36P25510XX NORWOOD AVE, LONG BRANCH, NJ
19LB06537BURGLARY, TO MOTOR VEHICLE03-18-2019 06:36P25510XX NORWOOD AVE, LONG BRANCH, NJ
19LB06537BURGLARY, NONRES, ATT FORCE EN03-18-2019 06:36P25510XX NORWOOD AVE, LONG BRANCH, NJ
19LB06537BURGLARY, NONRES, ATT FORCE EN03-18-2019 06:36P25510XX NORWOOD AVE, LONG BRANCH, NJ
19LB06972BURGLARY, RESD, UNLAWFUL EN03-23-2019 05:34P251X COLONIA DR, LONG BRANCH, NJ
19LB06972BURGLARY, RESD, UNLAWFUL EN03-23-2019 05:34P251X COLONIA DR, LONG BRANCH, NJ
19LB07013BURGLARY, RESD, UNLAWFUL EN03-23-2019 20:37P2543XX EASTBOURNE AVE, LONG BRANCH, NJ
19LB07309BURGLARY, NONRES, ATT FORCE EN03-27-2019 10:54P2511XX LIBERTY ST, LONG BRANCH, NJ
19LB08772BURGLARY, RESD, UNLAWFUL EN03-30-2019 20:00P2543XX BATH AVE, LONG BRANCH, NJ
19LB07641BURGLARY, TO MOTOR VEHICLE03-31-2019 14:04P2545XX SPRINGDALE AVE, LONG BRANCH, NJ
19LB07641BURGLARY, TO MOTOR VEHICLE03-31-2019 14:04P2545XX SPRINGDALE AVE, LONG BRANCH, NJ
19LB07983BURGLARY, TO MOTOR VEHICLE04-03-2019 00:56P2522XX 7TH AVE, LONG BRANCH, NJ
19LB08030BURGLARY, ATTEMPT TO MOTOR VEH04-03-2019 23:30P254XX EASTBOURNE AVE, LONG BRANCH, NJ
19LB08024BURGLARY, ATTEMPT TO MOTOR VEH04-04-2019 05:08P2541XX MATILDA TER, LONG BRANCH, NJ
19LB08428BURGLARY, NONRES, ATT FORCE EN04-09-2019 10:35P252XX JACKSON ST, LONG BRANCH, NJ
19LB08674BURGLARY, RESD, UNLAWFUL EN04-11-2019 12:00P2512XX LONG BRANCH AVE, LONG BRANCH, NJ
19LB09615BURGLARY, TO MOTOR VEHICLE04-18-2019 19:00P2511XX AVENEL BLVD, LONG BRANCH, NJ
19LB09317BURGLARY, ATTEMPT TO MOTOR VEH04-18-2019 21:00P2514XX OCEAN BLVD, LONG BRANCH, NJ
19LB09511BURGLARY, TO MOTOR VEHICLE04-22-2019 10:13P2532XX CLINTON PL, LONG BRANCH, NJ
19LB09619BURGLARY, ATTEMPT TO MOTOR VEH04-23-2019 13:30P2511XX AVENEL BLVD, LONG BRANCH, NJ
19LB09653BURGLARY, TO MOTOR VEHICLE04-23-2019 18:59P2513XX MAC ARTHUR AVE, LONG BRANCH, NJ
19LB10125BURGLARY, RESD, UNLAWFUL EN04-28-2019 11:58P2512XX SEAVIEW AVE, LONG BRANCH, NJ
19LB11202BURGLARY, TO MOTOR VEHICLE05-03-2019 16:15P254NORWOOD AVE & WEST END AVE, LB
19LB10830BURGLARY, NONRES, UNLAWFUL EN05-06-2019 07:58P2511XX BROADWAY, LONG BRANCH, NJ
19LB11153BURGLARY, RESD, FORCE EN05-09-2019 15:36P2552XX ROYAL PL, LONG BRANCH, NJ
19LB11383BURGLARY, TO MOTOR VEHICLE05-11-2019 00:00P2524XX DEWEY ST, LONG BRANCH, NJ
19LB11454BURGLARY, NONRES, ATT FORCE EN05-11-2019 21:00P2544XX WINTER ST, LONG BRANCH, NJ
19LB11463BURGLARY, RESD, UNLAWFUL EN05-13-2019 12:04P2511XX JOLINE AVE, LONG BRANCH, NJ
19LB11608BURGLARY, TO MOTOR VEHICLE05-14-2019 14:30P2514XX OCEAN BLVD, LONG BRANCH, NJ
19LB11703BURGLARY, NONRES, ATT FORCE EN05-16-2019 12:52P2551XX CEDAR AVE, LONG BRANCH, NJ
19LB12017BURGLARY, NONRES, ATT FORCE EN05-19-2019 21:00P2525XX BERDAN PL, LONG BRANCH, NJ
19LB12745BURGLARY, NONRES, ATT FORCE EN05-26-2019 19:11P2541XX GARRETT DR, LONG BRANCH, NJ
19LB13037BURGLARY, NONRES, ATT FORCE EN05-27-2019 11:00P2512XX SEAVIEW AVE, LONG BRANCH, NJ
19LB13538BURGLARY, TO MOTOR VEHICLE05-31-2019 17:15P253X OCEAN BLVD, LONG BRANCH, NJ
19LB14473BURGLARY, NONRES, ATT FORCE EN06-13-2019 00:00P2525XX BROADWAY, LONG BRANCH, NJ
19LB14180BURGLARY, RESD, FORCE EN06-10-2019 00:00P2533XX BATH AVE, LONG BRANCH, NJ
19LB15995BURGLARY, NONRES, ATT FORCE EN06-28-2019 00:00P252XX JACKSON ST, LONG BRANCH, NJ
19LB15995BURGLARY, NONRES, ATT FORCE EN06-28-2019 00:00P252XX JACKSON ST, LONG BRANCH, NJ
19LB16040BURGLARY, ATTEMPT TO MOTOR VEH06-28-2019 00:00P2525XX BROADWAY, LONG BRANCH, NJ
19LB14813BURGLARY, NONRES, ATT FORCE EN06-17-2019 00:00P2532XX JANE ST, LONG BRANCH, NJ
19LB13902BURGLARY, TO MOTOR VEHICLE06-07-2019 00:00P253X OCEAN BLVD, LONG BRANCH, NJ
19LB16360BURGLARY, NONRES, UNLAWFUL EN06-30-2019 00:00P253XX MELROSE TER, LONG BRANCH, NJ
19LB16360BURGLARY, NONRES, UNLAWFUL EN06-30-2019 00:00P253XX MELROSE TER, LONG BRANCH, NJ
19LB17292BURGLARY, TO MOTOR VEHICLE07-09-2019 15:45P2546XX MORFORD AVE, LONG BRANCH, NJ
19LB17342BURGLARY, TO MOTOR VEHICLE07-10-2019 00:38P2511XX ATLANTIC AVE, LONG BRANCH, NJ
19LB17392BURGLARY, TO MOTOR VEHICLE07-10-2019 12:24P2546XX MORFORD AVE, LONG BRANCH, NJ
19LB17434BURGLARY, NONRES, ATT FORCE EN07-10-2019 20:36P2546XX CONOVER ST, LONG BRANCH, NJ
19LB18527BURGLARY, NONRES, UNLAWFUL EN07-14-2019 16:57P2559XX WOODGATE AVE, LONG BRANCH, NJ
19LB18425BURGLARY, NONRES, ATT FORCE EN07-16-2019 23:00P252XX ROCKWELL AVE, LONG BRANCH, NJ
19LB18460BURGLARY, TO MOTOR VEHICLE07-19-2019 01:45P253XX COMMUNITY PL, LONG BRANCH, NJ
19LB19271BURGLARY, RESD, FORCE EN07-25-2019 23:37P2511XX LIBERTY ST, LONG BRANCH, NJ
19LB19685BURGLARY, TO MOTOR VEHICLE07-29-2019 01:20P2534XX WILLOW AVE, LONG BRANCH, NJ
19LB19966BURGLARY, RESD, UNLAWFUL EN07-31-2019 19:48P252XX MYRTLE AVE, LONG BRANCH, NJ
19LB22261BURGLARY, ATTEMPT TO MOTOR VEH08-20-2019 21:49P2551XX WEST END CT, LONG BRANCH, NJ
19LB21151BURGLARY, NONRES, ATT FORCE EN08-11-2019 13:18P2531XX 3RD AVE, LONG BRANCH, NJ
19LB20850BURGLARY, NONRES, ATT FORCE EN08-08-2019 10:00P252XX ROCKWELL AVE, LONG BRANCH, NJ
19LB22467BURGLARY, NONRES, ATT FORCE EN08-22-2019 21:18P252XX LIPPINCOTT AVE, LONG BRANCH, NJ
19LB22904BURGLARY, TO MOTOR VEHICLE08-27-2019 06:35P2522XX BRANCHPORT AVE, LONG BRANCH, NJ
19LB20940BURGLARY, TO MOTOR VEHICLE08-08-2019 22:00P2524XX ATLANTIC AVE, LONG BRANCH, NJ
19LB21352BURGLARY, TO MOTOR VEHICLE08-13-2019 10:36P254PEARL AVE & BATH ST, LONG BRANCH, NJ
19LB21616BURGLARY, TO MOTOR VEHICLE08-15-2019 15:53P252XX 6TH AVE, LONG BRANCH, NJ
19LB20648THEFT, VEH, AUTOMOBILE08-06-2019 20:32P2525XX JOLINE AVE, LONG BRANCH, NJ
19LB21328THEFT, VEH, AUTOMOBILE08-13-2019 04:40P253XX 2ND AVE, LONG BRANCH, NJ
19LB23418BURGLARY, NONRES, ATT FORCE EN09-01-2019 03:20P2524XX BROADWAY, LONG BRANCH, NJ
19LB23563BURGLARY, NONRES, ATT FORCE EN09-01-2019 17:00P2531XX 3RD AVE, LONG BRANCH, NJ
19LB23681BURGLARY, NONRES, ATT FORCE EN09-03-2019 07:00P255XX CEDAR AVE, LONG BRANCH, NJ
19LB23846BURGLARY, NONRES, ATT FORCE EN09-05-2019 11:20P2544XX BRIGHTON AVE, LONG BRANCH, NJ
19LB23856BURGLARY, TO MOTOR VEHICLE09-05-2019 12:15P2531XX BATH AVE, LONG BRANCH, NJ
19LB23975BURGLARY, NONRES, ATT FORCE EN09-06-2019 18:06P2526XX BROADWAY, LONG BRANCH, NJ
19LB24261BURGLARY, RESD, UNLAWFUL EN09-09-2019 12:40P251XX AVENEL BLVD, LONG BRANCH, NJ
19LB24309BURGLARY, NONRES, ATT FORCE EN09-10-2019 00:08P2543XX WAVERLY PL, LONG BRANCH, NJ
19LB24435THEFT, VEH, AUTOMOBILE09-10-2019 23:00P2524XX W COLUMBUS PL, LONG BRANCH, NJ
19LB24472THEFT, VEH, AUTOMOBILE09-11-2019 11:51P252W COLUMBUS PL, LONG BRANCH, NJ
19LB25108BURGLARY, TO MOTOR VEHICLE09-17-2019 14:41P251N 3RD AVE & UNION AVE, LONG BRANCH, NJ
19LB25314BURGLARY, NONRES, ATT FORCE EN09-19-2019 07:30P2543XX EASTBOURNE AVE, LONG BRANCH, NJ
19LB25868BURGLARY, NONRES, ATT FORCE EN09-24-2019 22:46P2532XX CLEVELAND AVE, LONG BRANCH, NJ
19LB26043BURGLARY, TO MOTOR VEHICLE09-26-2019 01:00P2554XX BROOKDALE AVE, LONG BRANCH, NJ
19LB26571THEFT, VEH, AUTOMOBILE09-28-2019 12:00P255X BERG AVE, LONG BRANCH, NJ
19LB26363BURGLARY, ATTEMPT TO MOTOR VEH09-29-2019 01:05P2511XX KINGSLEY ST, LONG BRANCH, NJ
19LB26481BURGLARY, NONRES, ATT FORCE EN09-30-2019 08:40P2544XX BATH AVE, LONG BRANCH, NJ
19LB26548BURGLARY, NONRES, FORCE EN10-01-2019 00:08P2531XX BROADWAY, LONG BRANCH, NJ
19LB27329BURGLARY, NONRES, ATT FORCE EN10-06-2019 18:15P2551XX BRIGHTON AVE, LONG BRANCH, NJ
19LB27194BURGLARY, RESD, UNLAWFUL EN10-07-2019 17:51P2543XX 2ND AVE, LONG BRANCH, NJ
19LB27255BURGLARY, ATTEMPT TO MOTOR VEH10-08-2019 14:28P254CONOVER ST, LONG BRANCH, NJ
19LB27976BURGLARY, NONRES, ATT FORCE EN10-16-2019 09:47P2522XX ROCKWELL AVE, LONG BRANCH, NJ
19LB29865THEFT, VEH, AUTOMOBILE11-05-2019 00:34P2551XX VOZI CT, LONG BRANCH, NJ
19LB31073BURGLARY, TO MOTOR VEHICLE11-19-2019 01:38P255XX JIM LYNCH DR, LONG BRANCH, NJ
19LB31769BURGLARY, NONRES, FORCE EN11-26-2019 15:53P2531XX BELMONT AVE, LONG BRANCH, NJ
19LB32128BURGLARY, NONRES, ATT FORCE EN12-01-2019 16:39P2544XX SAIRS AVE, LONG BRANCH, NJ
19LB32182BURGLARY, TO MOTOR VEHICLE12-01-2019 19:03P2544XX OCEAN AVE, LONG BRANCH, NJ
19LB32848BURGLARY, TO MOTOR VEHICLE12-07-2019 00:00P2544XX WESTBOURNE AVE, LONG BRANCH, NJ
19LB33158BURGLARY, TO MOTOR VEHICLE12-12-2019 17:20P2521XX EDWARDS AVE, LONG BRANCH, NJ
19LB33363BURGLARY, NONRES, ATT FORCE EN12-14-2019 21:00P251XX COOPER AVE, LONG BRANCH, NJ
19LB33578BURGLARY, NONRES, ATT FORCE EN12-15-2019 16:00P2521XX ROCKWELL AVE, LONG BRANCH, NJ
19LB33834BURGLARY, NONRES, ATT FORCE EN12-19-2019 16:30P2521XX MYRTLE AVE, LONG BRANCH, NJ
19LB34160BURGLARY, NONRES, ATT FORCE EN12-23-2019 08:23P2533XX BROADWAY, LONG BRANCH, NJ
19LB34372BURGLARY, NONRES, ATT FORCE EN12-26-2019 09:14P2542XX JENNINGS LN, LONG BRANCH, NJ




Burglary 2019.xls

Burglary 2019.pdf

The City of Long Branch Police Department is committed to providing a safe community and improving the quality of life for all people. We accomplish this by delivering quality police services and enforcing laws with equality and impartiality. In partnership with the community, we reduce crime through public education, prevention, and awareness. In meeting this objective, we demand of ourselves the highest professional standards and dedication to our core values.

Professionalism

In our actions, conduct, and job performance. Committed to training, education, individual self-discipline, service orientation and other attributes of a true professional.

Respect

For all citizens, each other, and for differing points of view, regardless of age, race, gender, appearance, individual beliefs, or lifestyles.

Integrity

Truthful & honest in word and deed. Ethical, being guided by the concept of fundamental fairness in everything we do, doing what is right.

Dedication

To the organization, each other, our families, and the citizens we serve. Empower department members and citizens to work together to solve community problems.

Excellence

In everything we do. Seeking to improve and excel, always.


Police Department is located at the rear of the building in the lower level. 

For Emergencies Dial 9-1-1

Non-Emergencies 732-222-1000

City Hall Main No. 732-222-7000